Weather History for KBGE - May, 2013

Change the Weather History Date:

Tuesday, May 14, 2013

  Actual Average (KMAI) Record (KMAI)
Temperature  
Mean Temperature 66 °F 75 °F  
Max Temperature 82 °F 86 °F - ()
Min Temperature 50 °F 63 °F - ()
Degree Days  
Heating Degree Days 0    
Month to date heating degree days  
Since 1 July heating degree days  
Cooling Degree Days 1    
Month to date cooling degree days  
Year to date cooling degree days  
Growing Degree Days 16 (Base 50)    
Moisture  
Dew Point 48 °F    
Average Humidity 55    
Maximum Humidity 94    
Minimum Humidity 28    
Precipitation  
Precipitation 0.00 in 0.09 in - ()
Month to date precipitation 1.12  
Year to date precipitation 20.35  
Sea Level Pressure  
Sea Level Pressure 30.23 in    
Wind  
Wind Speed 2 mph (North)    
Max Wind Speed 12 mph    
Max Gust Speed -    
Visibility 10 miles    
Events      
T = Trace of Precipitation, MM = Missing Value Source: NWS Daily Summary

Daily Weather History Graph

Daily Weather History Graph

Search for Another Location

Airport or City:

Trip Planner

Search our weather history database for the weather conditions in past years. The results will help you decide how hot, cold, wet, or windy it might be!

Date:

Astronomy

May. 14, 2013 Rise Set
Actual Time 6:43 AM EDT 8:26 PM EDT
Civil Twilight 6:17 AM EDT 8:52 PM EDT
Nautical Twilight 5:45 AM EDT 9:24 PM EDT
Astronomical Twilight 5:12 AM EDT 9:58 PM EDT
Moon 10:22 AM EDT (5/14) No Moon Set
Length of Visible Light 14h 35m
Length of Day
13h 42m
Waxing Crescent, 19% of the Moon is Illuminated
May 14
Waxing Crescent
May 18
First Quarter
May 25
Full
May 31
Last Quarter
Jun 8
New

Hourly Weather History & Observations

Time (EDT) Temp. Dew Point Humidity Pressure Visibility Wind Dir Wind Speed Gust Speed Precip Events Conditions
12:15 AM 59.0 °F 46.4 °F 63% 30.20 in 10.0 mi NW 3.5 mph - N/A   Clear
12:35 AM 60.8 °F 44.6 °F 55% 30.20 in 10.0 mi NNW 4.6 mph - N/A   Clear
12:55 AM 62.6 °F 44.6 °F 52% 30.21 in 10.0 mi North 3.5 mph - N/A   Clear
1:15 AM 60.8 °F 44.6 °F 55% 30.21 in 10.0 mi North 3.5 mph - N/A   Clear
1:35 AM 53.6 °F 46.4 °F 77% 30.21 in 10.0 mi Calm Calm - N/A   Clear
1:55 AM 53.6 °F 48.2 °F 82% 30.21 in 10.0 mi Calm Calm - N/A   Clear
2:15 AM 57.2 °F 46.4 °F 67% 30.21 in 10.0 mi Calm Calm - N/A   Clear
2:35 AM 53.6 °F 46.4 °F 77% 30.21 in 10.0 mi Calm Calm - N/A   Clear
2:55 AM 53.6 °F 46.4 °F 77% 30.20 in 10.0 mi Calm Calm - N/A   Clear
3:15 AM 53.6 °F 46.4 °F 77% 30.20 in 10.0 mi Calm Calm - N/A   Clear
3:35 AM 51.8 °F 46.4 °F 82% 30.21 in 10.0 mi SE 3.5 mph - N/A   Clear
3:55 AM 51.8 °F 46.4 °F 82% 30.20 in 10.0 mi Calm Calm - N/A   Clear
4:15 AM 51.8 °F 46.4 °F 82% 30.20 in 10.0 mi Calm Calm - N/A   Clear
4:35 AM 51.8 °F 46.4 °F 82% 30.20 in 10.0 mi Calm Calm - N/A   Clear
4:55 AM 51.8 °F 46.4 °F 82% 30.20 in 7.0 mi Calm Calm - N/A   Clear
5:15 AM 51.8 °F 48.2 °F 88% 30.21 in 10.0 mi Calm Calm - N/A   Clear
5:35 AM 51.8 °F 46.4 °F 82% 30.21 in 7.0 mi Calm Calm - N/A   Clear
5:55 AM 50.0 °F 46.4 °F 87% 30.22 in 7.0 mi Calm Calm - N/A   Clear
6:15 AM 50.0 °F 46.4 °F 87% 30.23 in 7.0 mi Calm Calm - N/A   Clear
6:35 AM 50.0 °F 46.4 °F 87% 30.25 in 7.0 mi West 4.6 mph - N/A   Clear
6:55 AM 50.0 °F 48.2 °F 94% 30.26 in 10.0 mi Calm Calm - N/A   Clear
7:15 AM 51.8 °F 48.2 °F 88% 30.26 in 10.0 mi Calm Calm - N/A   Clear
7:35 AM 51.8 °F 46.4 °F 82% 30.27 in 10.0 mi Calm Calm - N/A   Clear
7:55 AM 53.6 °F 50.0 °F 88% 30.27 in 10.0 mi Calm Calm - N/A   Clear
8:15 AM 57.2 °F 50.0 °F 77% 30.27 in 10.0 mi Calm Calm - N/A   Clear
8:35 AM 59.0 °F 50.0 °F 72% 30.28 in 10.0 mi Calm Calm - N/A   Clear
8:55 AM 62.6 °F 50.0 °F 63% 30.28 in 10.0 mi Calm Calm - N/A   Clear
9:15 AM 62.6 °F 46.4 °F 55% 30.28 in 10.0 mi Calm Calm - N/A   Clear
9:35 AM 64.4 °F 48.2 °F 56% 30.29 in 10.0 mi Calm Calm - N/A   Clear
9:55 AM 68.0 °F 48.2 °F 49% 30.29 in 10.0 mi Calm Calm - N/A   Clear
10:15 AM 71.6 °F 46.4 °F 41% 30.29 in 10.0 mi Calm Calm - N/A   Clear
10:35 AM 71.6 °F 44.6 °F 38% 30.29 in 10.0 mi ENE 3.5 mph - N/A   Clear
10:55 AM 71.6 °F 44.6 °F 38% 30.29 in 10.0 mi ENE 5.8 mph - N/A   Clear
11:15 AM 73.4 °F 42.8 °F 33% 30.30 in 10.0 mi ENE 5.8 mph - N/A   Clear
11:35 AM 73.4 °F 42.8 °F 33% 30.30 in 10.0 mi East 4.6 mph - N/A   Clear
11:55 AM 73.4 °F 42.8 °F 33% 30.30 in 10.0 mi SSE 3.5 mph - N/A   Clear
12:15 PM 77.0 °F 44.6 °F 32% 30.30 in 10.0 mi SE 3.5 mph - N/A   Clear
12:35 PM 77.0 °F 44.6 °F 32% 30.30 in 10.0 mi Calm Calm - N/A   Clear
12:55 PM 77.0 °F 44.6 °F 32% 30.29 in 10.0 mi East 5.8 mph - N/A   Clear
1:15 PM 78.8 °F 44.6 °F 30% 30.28 in 10.0 mi East 4.6 mph - N/A   Clear
1:35 PM 78.8 °F 44.6 °F 30% 30.28 in 10.0 mi NNW 3.5 mph - N/A   Clear
1:55 PM 78.8 °F 44.6 °F 30% 30.27 in 10.0 mi Calm Calm - N/A   Clear
2:15 PM 80.6 °F 46.4 °F 30% 30.26 in 10.0 mi NW 4.6 mph - N/A   Clear
2:35 PM 80.6 °F 46.4 °F 30% 30.25 in 10.0 mi NW 11.5 mph - N/A   Clear
2:55 PM 80.6 °F 46.4 °F 30% 30.24 in 10.0 mi West 3.5 mph - N/A   Clear
3:15 PM 80.6 °F 46.4 °F 30% 30.24 in 10.0 mi SSW 4.6 mph - N/A   Clear
3:35 PM 80.6 °F 46.4 °F 30% 30.23 in 10.0 mi WNW 9.2 mph - N/A   Clear
3:55 PM 82.4 °F 46.4 °F 28% 30.22 in 10.0 mi North 4.6 mph - N/A   Clear
4:15 PM 82.4 °F 48.2 °F 30% 30.21 in 10.0 mi NW 11.5 mph - N/A   Clear
4:35 PM 82.4 °F 46.4 °F 28% 30.21 in 10.0 mi NNW 4.6 mph - N/A   Clear
4:55 PM 82.4 °F 48.2 °F 30% 30.20 in 10.0 mi WSW 4.6 mph - N/A   Clear
5:15 PM 82.4 °F 48.2 °F 30% 30.19 in 10.0 mi Calm Calm - N/A   Clear
5:35 PM 82.4 °F 48.2 °F 30% 30.19 in 10.0 mi NNW 5.8 mph - N/A   Clear
5:55 PM 82.4 °F 48.2 °F 30% 30.18 in 10.0 mi NNE 4.6 mph - N/A   Clear
6:15 PM 80.6 °F 48.2 °F 32% 30.18 in 10.0 mi North 4.6 mph - N/A   Clear
6:35 PM 80.6 °F 46.4 °F 30% 30.18 in 10.0 mi Calm Calm - N/A   Clear
6:55 PM 80.6 °F 50.0 °F 34% 30.17 in 10.0 mi NNE 6.9 mph - N/A   Clear
7:15 PM 80.6 °F 48.2 °F 32% 30.17 in 10.0 mi NNE 4.6 mph - N/A   Clear
7:35 PM 80.6 °F 50.0 °F 34% 30.17 in 10.0 mi North 3.5 mph - N/A   Clear
7:55 PM 80.6 °F 48.2 °F 32% 30.17 in 10.0 mi Calm Calm - N/A   Clear
8:15 PM 77.0 °F 50.0 °F 39% 30.17 in 10.0 mi Calm Calm - N/A   Clear
8:35 PM 73.4 °F 57.2 °F 57% 30.18 in 10.0 mi Calm Calm - N/A   Clear
8:55 PM 71.6 °F 57.2 °F 60% 30.18 in 10.0 mi SSW 3.5 mph - N/A   Clear
9:15 PM 71.6 °F 55.4 °F 57% 30.18 in 10.0 mi Calm Calm - N/A   Clear
9:35 PM 69.8 °F 57.2 °F 64% 30.19 in 10.0 mi Calm Calm - N/A   Clear
9:55 PM 68.0 °F 59.0 °F 73% 30.19 in 10.0 mi Calm Calm - N/A   Clear
10:15 PM 69.8 °F 57.2 °F 64% 30.20 in 10.0 mi Calm Calm - N/A   Clear
10:55 PM 66.2 °F 55.4 °F 68% 30.21 in 10.0 mi Calm Calm - N/A   Clear
11:15 PM 64.4 °F 57.2 °F 77% 30.21 in 10.0 mi Calm Calm - N/A   Clear
11:35 PM 64.4 °F 55.4 °F 73% 30.20 in 10.0 mi Calm Calm - N/A   Clear
11:55 PM 64.4 °F 53.6 °F 68% 30.20 in 10.0 mi SSW 5.8 mph - N/A   Clear